Find Starlink 5605

NORAD ID: 55411 Int'l Des: 2023-014 Owner: SPXS Country: US Constellation: starlink operational
LEOCIRCULAR

リアルタイム位置

3D地球を読み込み中...

Starlink 5605について

説明を読み込み中...

次回通過

Passes for default location (London). Set your location on the main map for personalized predictions.

高度履歴

Loading altitude history...

軌道要素

1 55411U 23014W 26132.39823004 -.00003127 00000-0 -25439-3 0 9990
2 55411 69.9990 264.0111 0002756 266.9297 93.1546 14.98331590181591
Epoch: May 12, 2026 • Age: 21 hours

現在のステータス

高度 584.3 km
速度 7.57 km/s
衛星直下点 64.24°N, 59.2°E
打ち上げ日 Jan 31, 2023
運用期間 3.2 years
タイプ internet

技術仕様

分類 Payload
質量 305.00 kg
乾燥質量 290.00 kg
総質量 305.00 kg
長さ 0.20 m
直径 2.80 m
スパン 9.00 m
形状 Box + pan
製造者 SPXS
バスタイプ Starlink
フェーズステータス In Orbit
所有者/国 SPXS/US

Most Searched